Temperature
6 6 6 7 8 8 8 8 9 9 11 11 11 11 12 13 13 14 14 15 16 16 16 17 17 17 17 16 16 16 16 16 15 15 15 15 15 14 14 14 14 14 14 14
5 6 7 8 8 8 8 8 9 10 10 11 10 11 11 12 12 14 14 15 15 16 16 16 16 16 16 16 16 16 16 16 15 15 15 15 15 14 14 14 14 14 14 14
5 6 7 8 8 8 8 8 8 9 10 10 11 10 10 11 12 13 14 15 15 15 16 16 16 16 16 16 16 16 16 16 15 15 15 15 14 14 14 14 14 14 14 14
5 6 7 7 8 8 8 8 9 9 9 8 10 8 9 9 10 10 12 14 14 15 15 15 15 15 15 15 15 15 15 15 15 15 15 14 14 14 14 14 14 14 13 13
6 6 7 7 8 8 8 8 9 9 8 8 8 8 8 9 9 10 10 13 14 14 14 14 14 15 15 15 15 15 14 14 14 14 14 14 14 14 13 13 13 13 13 13
6 6 7 7 8 8 8 8 7 7 7 8 7 7 7 7 9 10 10 12 13 13 13 13 13 13 13 14 13 13 13 13 13 13 13 13 13 13 13 13 12 12 12 12
6 6 6 7 7 7 8 7 7 7 7 7 7 7 8 8 8 9 10 11 12 12 12 12 12 12 13 13 13 12 12 12 12 12 12 12 12 12 12 11 11 11 11 11
5 6 6 7 7 7 7 7 7 7 7 6 6 6 8 8 8 9 10 10 11 11 11 12 12 12 12 12 11 11 11 11 11 11 11 11 11 11 11 10 10 10 10 10
5 6 6 7 7 7 7 7 7 6 6 6 6 6 6 8 7 8 8 8 9 10 10 11 11 11 11 11 11 10 10 10 10 10 10 10 10 10 10 9 9 9 9 9
6 6 6 7 7 7 7 7 6 6 6 7 7 6 7 8 8 7 6 7 8 9 9 10 10 10 10 10 10 10 9 9 9 9 9 9 9 9 9 8 8 8 8 8
6 6 6 6 6 7 7 6 6 6 6 6 6 7 8 8 8 6 6 7 8 8 9 10 10 10 10 9 9 9 9 8 8 8 8 8 8 8 8 7 7 7 7 7
6 5 5 6 6 7 7 7 6 6 6 5 5 7 8 7 6 6 7 7 8 9 9 10 10 9 9 9 9 8 8 8 7 7 7 7 7 7 7 6 6 6 6 6
6 5 5 6 6 6 6 6 6 6 5 4 5 7 8 6 7 7 7 8 8 9 9 9 9 9 9 9 8 8 8 7 7 6 6 6 6 6 6 5 5 5 5 5
6 5 5 6 6 5 5 6 6 5 5 5 5 6 8 8 7 7 8 8 9 9 9 9 9 9 9 8 8 7 7 6 6 6 5 5 5 5 5 5 5 4 4 4
6 5 5 5 6 6 5 6 5 5 5 5 6 6 8 8 7 8 8 8 8 9 9 9 9 9 9 8 8 7 6 6 5 5 5 4 4 4 4 4 4 4 3 3
5 5 5 5 6 5 5 5 5 5 5 5 6 6 7 8 8 8 8 8 8 9 10 10 10 9 9 8 8 7 6 5 5 4 4 4 3 3 3 3 3 3 2 2
4 5 5 4 5 6 5 5 5 5 5 5 6 7 7 7 7 8 9 9 9 10 10 10 10 10 9 8 7 6 5 4 4 3 3 3 3 2 2 2 2 1 1 1
4 4 4 4 5 5 6 7 6 5 6 5 6 6 7 7 9 9 10 10 10 10 10 10 10 9 9 8 7 5 5 4 3 3 3 2 2 2 1 1 1 1 1 1
4 5 4 4 4 4 5 6 6 5 5 6 6 6 7 7 7 8 9 10 10 10 10 10 10 9 8 7 6 5 4 3 3 2 2 1 1 1 1 1 0 -0 0 0
4 4 5 4 5 5 6 7 7 6 6 7 6 5 6 6 5 6 9 10 10 9 9 9 9 8 7 7 5 4 4 3 2 2 1 1 1 1 0 0 -0 -0 -0 -0
4 4 4 4 5 5 6 6 7 6 6 8 7 7 6 5 7 8 9 9 9 9 9 9 8 8 7 6 5 4 3 3 2 1 1 1 0 -0 -0 -0 -0 -0 -0 -0
4 4 4 4 5 5 6 6 6 6 8 8 8 8 7 7 8 8 9 9 9 8 8 8 7 7 6 5 4 4 3 2 1 1 1 0 -0 -0 -0 -0 -0 -0 -0 -1
3 4 4 4 5 6 7 7 8 8 8 8 8 8 8 8 8 8 8 8 8 8 7 7 7 6 5 5 4 3 2 1 1 1 0 0 -0 -0 -0 -0 -0 -0 -0 -1
3 3 3 3 4 5 7 8 8 8 8 8 8 8 8 8 8 8 8 7 7 7 7 6 6 5 5 4 3 3 2 1 1 1 0 0 -0 -0 -0 -0 -0 -0 -0 -1
3 3 3 3 4 5 7 8 8 8 8 8 8 8 8 8 7 7 7 7 7 6 6 6 5 5 4 3 3 2 2 1 1 1 0 0 -0 -0 -0 -1 -0 -0 -1 -1
2 3 3 4 5 5 6 7 7 7 7 7 7 7 7 7 7 7 7 6 6 6 5 5 5 4 4 3 3 2 2 1 1 1 0 0 -0 -0 -1 -1 -1 -1 -1 -1
Wind_Speed
3 3 4 6 4 3 6 7 5 5 2 5 7 6 5 4 6 8 8 6 6 5 1 1 2 2 3 3 3 3 3 2 3 2 2 2 3 2 3 4 6 7 7 8
3 2 3 3 3 3 4 5 5 1 1 4 4 6 6 6 7 8 9 9 8 6 3 1 2 3 3 3 4 3 3 2 2 2 2 2 2 2 2 1 2 3 4 5
4 2 4 4 4 3 1 6 6 4 2 3 1 5 7 7 5 6 8 8 7 9 8 5 4 4 4 4 3 4 4 3 2 1 2 2 2 1 1 0 0 1 2 2
0 1 3 5 4 4 2 3 5 5 5 1 2 5 8 7 7 9 10 9 9 8 8 6 6 5 4 4 4 5 5 5 4 3 2 3 2 2 1 0 1 2 2 2
1 1 4 5 5 5 2 2 4 4 4 1 1 3 8 4 9 12 11 10 9 9 9 8 7 6 5 4 5 5 6 6 5 5 3 3 2 1 0 1 2 2 3 4
0 1 1 2 3 4 3 5 6 4 3 4 6 5 8 6 10 8 8 9 9 9 9 8 7 6 5 5 5 5 6 6 6 6 5 4 3 2 2 2 2 2 2 3
1 1 0 1 5 3 3 4 2 1 3 6 4 6 10 9 9 8 9 8 8 9 10 10 9 8 6 6 5 5 6 6 5 6 6 5 4 3 2 1 2 2 2 3
3 2 2 1 4 6 5 5 5 5 5 3 3 8 9 7 6 7 8 6 7 9 9 10 9 8 7 7 6 6 6 5 5 5 5 5 5 4 3 3 3 3 2 2
5 2 1 1 1 6 6 4 3 4 2 2 6 7 10 5 6 5 5 6 9 10 10 9 8 8 7 7 6 6 6 6 5 5 5 5 5 5 4 4 4 3 3 3
5 3 1 1 2 1 3 5 4 4 5 4 5 6 6 7 7 5 5 7 8 8 8 8 7 7 6 6 5 5 6 6 4 4 4 4 5 5 5 5 5 5 5 4
3 4 2 2 5 6 5 4 4 3 3 5 4 7 6 7 7 8 8 7 9 9 9 8 7 6 6 6 6 6 6 5 5 5 5 5 5 5 5 5 5 5 5 5
3 3 2 3 2 2 4 6 7 5 4 4 4 8 5 5 8 7 7 6 7 8 7 7 7 7 6 6 6 6 5 5 5 5 5 5 5 5 6 5 5 5 6 5
5 4 2 1 1 2 4 5 6 4 3 5 5 7 3 3 3 3 5 7 7 7 7 6 6 7 7 7 6 6 5 5 5 5 5 5 5 5 5 5 5 5 6 6
5 4 5 7 4 6 5 6 7 7 6 6 9 9 9 7 5 3 5 7 8 8 8 8 7 7 7 7 7 6 6 5 6 5 5 5 4 4 5 5 5 5 6 6
4 3 4 5 4 5 7 8 10 12 11 10 9 11 13 9 8 7 6 7 7 8 9 10 9 8 8 7 7 7 6 6 6 6 5 5 4 5 5 5 5 6 6 6
3 3 2 3 3 5 6 9 11 13 11 13 13 16 11 8 6 6 8 9 11 11 11 10 9 9 10 9 9 8 7 6 6 6 6 5 5 5 5 5 5 6 6 6
2 4 3 3 3 3 8 11 14 9 9 10 16 15 7 7 9 10 11 11 13 13 12 11 11 11 11 10 10 10 8 7 7 7 6 6 6 6 5 6 5 5 5 6
5 4 2 1 0 7 8 3 7 9 10 12 11 10 9 12 11 9 10 12 12 12 11 10 10 9 8 9 9 8 9 8 8 7 7 6 6 6 6 6 5 5 4 5
7 6 3 2 3 8 9 5 6 7 8 9 13 14 10 6 3 6 8 10 11 10 9 8 8 8 9 10 10 10 9 8 8 8 8 7 7 7 7 6 5 4 4 4
4 4 4 4 4 6 7 3 3 3 6 5 6 9 6 5 4 6 5 7 7 6 5 6 7 7 9 9 10 11 10 9 9 8 8 7 7 7 7 6 5 4 4 4
4 4 7 7 6 8 8 4 5 3 6 4 3 5 6 8 6 3 1 3 4 5 5 7 8 8 9 10 11 10 9 9 8 8 7 7 7 7 6 6 4 5 5 4
8 6 7 6 8 9 4 6 7 8 4 3 3 3 4 5 2 1 2 3 5 5 5 7 7 7 7 9 10 10 9 8 8 8 8 7 7 6 6 6 5 5 6 5
7 8 5 8 9 5 4 7 6 3 4 3 2 2 3 3 2 2 2 3 4 4 5 5 7 7 6 8 9 9 8 8 9 9 8 7 7 6 6 7 7 5 5 4
5 2 3 6 8 7 7 7 6 5 5 4 3 3 4 4 3 3 3 3 3 4 5 5 7 7 7 7 7 7 8 9 9 9 8 7 7 6 6 5 6 6 6 5
5 3 4 7 8 8 7 6 6 4 4 4 3 3 4 4 4 4 4 4 4 4 5 6 7 7 8 7 7 7 9 10 9 9 8 7 7 7 6 6 6 6 6 7
6 8 7 8 6 5 6 5 4 4 5 5 3 3 2 4 4 4 4 4 4 4 5 5 6 7 7 8 8 8 9 10 10 9 8 7 6 6 6 5 4 8 8 11
Wind_Direction
104 119 178 186 185 163 142 142 162 200 214 176 209 230 242 230 215 225 232 226 222 225 245 22 61 89 101 93 113 132 137 139 142 140 159 177 201 204 207 217 224 225 225 222
92 189 189 161 156 126 147 154 163 179 193 170 209 244 252 240 224 220 223 221 215 208 200 159 99 88 96 100 98 99 103 100 127 156 156 161 161 175 193 200 214 226 230 229
148 188 170 162 152 144 186 177 167 160 91 56 108 279 253 254 239 235 228 221 212 203 197 186 152 121 106 97 96 100 91 82 71 97 118 98 90 72 70 23 292 320 276 254
77 252 157 161 176 151 189 188 162 144 136 227 169 251 267 246 253 243 234 224 214 202 188 180 167 143 124 108 94 88 82 72 56 61 103 145 167 193 207 315 332 356 9 355
171 129 154 175 177 155 163 114 124 136 134 116 182 219 276 255 248 247 236 225 214 196 184 177 169 148 123 107 94 85 78 64 53 58 81 108 124 164 42 36 28 20 20 19
100 31 142 162 138 137 122 81 68 64 97 228 209 199 269 234 225 242 239 223 206 186 174 161 146 132 117 101 92 87 81 63 51 58 62 83 99 91 76 39 20 12 12 12
76 40 39 132 122 107 112 112 106 126 205 241 189 208 249 244 232 232 244 235 203 178 166 159 155 149 139 122 107 96 92 75 59 63 60 62 73 79 80 53 36 24 16 10
148 189 197 161 161 161 168 157 168 186 205 254 211 232 253 256 265 258 254 229 187 176 170 166 163 155 147 136 124 114 104 91 74 70 63 56 59 65 60 51 54 47 34 15
160 192 120 145 123 141 146 182 153 130 133 232 251 276 298 264 273 268 245 198 185 179 173 166 160 155 150 142 136 129 118 103 86 80 78 63 58 64 64 55 51 46 31 32
152 159 168 144 106 67 152 142 124 150 174 232 268 263 254 278 271 267 235 209 190 173 168 165 162 159 153 144 132 122 118 113 99 85 81 81 65 65 65 63 54 47 38 37
140 145 144 155 194 181 153 161 165 170 185 184 251 267 231 245 268 259 242 214 189 179 176 173 167 159 148 139 134 128 123 116 104 93 86 81 71 67 67 64 55 49 45 42
156 133 169 219 221 178 186 189 170 183 218 195 209 268 273 261 270 250 230 203 189 184 178 172 164 157 155 152 146 141 136 127 120 111 100 90 81 75 71 66 57 56 57 52
150 136 126 353 264 187 215 207 191 172 161 184 200 259 288 311 301 242 207 193 185 183 179 172 170 174 173 167 160 154 148 140 130 121 111 99 89 84 79 74 68 65 66 62
141 153 184 198 210 184 202 207 191 186 210 221 226 252 281 294 295 268 216 200 192 191 187 185 188 189 183 175 169 162 156 147 140 130 122 114 107 102 96 89 79 73 72 70
134 199 225 242 237 194 212 214 202 212 218 224 239 240 254 257 252 241 218 202 198 202 201 199 198 193 185 179 174 167 161 155 146 138 133 130 124 115 106 96 86 79 75 74
149 195 211 281 255 224 243 234 221 225 229 236 251 258 251 247 233 227 215 204 207 212 212 208 201 193 191 186 180 172 168 161 151 148 147 143 137 126 117 109 99 91 82 75
184 169 177 263 289 318 263 229 216 213 210 207 237 250 240 234 231 228 220 211 213 215 212 207 203 199 195 187 178 176 170 157 155 156 156 155 150 141 134 126 115 105 96 88
173 165 180 234 75 245 245 234 207 221 240 226 239 252 239 237 240 235 217 211 216 214 210 209 202 193 183 173 167 160 156 159 162 163 165 164 159 150 142 134 129 120 108 100
185 172 181 189 243 277 290 261 195 205 264 235 237 251 254 250 271 270 229 212 215 212 206 200 188 176 164 165 161 155 158 162 167 173 175 172 165 159 155 152 146 134 125 114
165 171 186 197 224 250 257 262 173 139 282 270 230 248 243 167 217 261 232 200 201 186 171 160 149 147 158 162 156 158 165 171 181 181 175 170 167 165 164 161 150 140 137 134
159 190 211 219 238 262 255 238 136 184 254 282 249 248 206 196 218 252 167 153 156 149 145 145 149 158 165 160 158 165 172 185 182 168 164 164 166 165 162 155 150 147 143 137
188 192 204 202 224 251 231 150 185 225 256 275 274 254 208 217 224 181 144 142 142 138 141 148 153 158 159 161 164 172 185 180 162 160 163 165 165 165 161 157 157 155 153 155
209 202 197 203 222 245 208 213 236 223 243 259 255 244 185 190 208 189 170 158 156 156 155 155 157 158 165 172 173 180 182 164 161 163 168 168 167 168 165 169 170 165 167 172
262 218 212 252 263 267 263 255 256 236 239 253 244 219 188 200 206 195 187 177 170 169 172 165 163 172 182 184 186 184 169 165 166 171 174 172 172 175 176 178 179 179 183 188
247 218 233 258 275 295 283 251 251 256 248 253 254 223 208 202 210 203 203 198 191 184 178 177 183 191 193 186 188 180 170 168 172 176 178 179 181 180 184 188 195 194 201 195
214 207 213 241 240 238 268 286 276 258 253 242 230 242 236 204 208 200 206 200 190 190 184 189 195 196 193 188 191 184 178 176 176 182 185 186 185 186 187 189 207 225 217 224
Height
1494 1498 1499 1499 1500 1501 1504 1507 1509 1509 1506 1508 1509 1509 1508 1508 1509 1510 1510 1511 1513 1515 1517 1519 1520 1522 1524 1526 1528 1530 1532 1534 1536 1538 1539 1541 1542 1543 1544 1545 1546 1547 1548 1548
1498 1499 1498 1498 1499 1501 1503 1507 1508 1508 1506 1508 1510 1510 1507 1506 1506 1506 1507 1508 1510 1512 1514 1516 1517 1519 1521 1523 1525 1527 1529 1531 1533 1534 1536 1537 1539 1540 1541 1541 1542 1543 1543 1544
1497 1498 1497 1499 1501 1503 1506 1507 1508 1508 1508 1509 1510 1511 1507 1503 1502 1503 1503 1504 1506 1508 1510 1513 1514 1516 1518 1520 1522 1524 1526 1528 1529 1531 1532 1534 1535 1535 1536 1537 1538 1538 1539 1539
1498 1497 1498 1499 1501 1503 1506 1505 1506 1507 1512 1517 1514 1520 1509 1503 1501 1498 1498 1499 1501 1504 1507 1509 1512 1514 1516 1518 1519 1521 1523 1524 1526 1527 1528 1529 1530 1531 1532 1533 1533 1533 1534 1534
1498 1497 1498 1500 1501 1502 1505 1504 1506 1508 1513 1518 1517 1520 1510 1502 1500 1494 1492 1494 1496 1499 1503 1505 1508 1511 1513 1515 1516 1518 1519 1521 1522 1523 1524 1525 1526 1527 1527 1528 1528 1528 1529 1528
1498 1498 1499 1499 1500 1502 1504 1507 1510 1513 1516 1520 1517 1520 1510 1502 1493 1489 1488 1488 1490 1494 1498 1502 1505 1507 1510 1511 1513 1515 1516 1517 1518 1519 1520 1521 1521 1522 1522 1523 1523 1523 1523 1523
1499 1499 1499 1499 1501 1504 1506 1511 1516 1518 1519 1518 1515 1514 1502 1490 1486 1485 1484 1484 1486 1489 1493 1497 1500 1504 1506 1509 1510 1512 1513 1514 1515 1515 1516 1516 1517 1517 1518 1518 1518 1518 1518 1518
1501 1502 1499 1499 1499 1502 1506 1509 1515 1517 1519 1520 1516 1511 1495 1485 1482 1481 1481 1481 1483 1486 1489 1493 1497 1501 1504 1506 1508 1509 1510 1511 1512 1512 1512 1513 1513 1513 1513 1514 1513 1513 1513 1513
1500 1501 1498 1498 1499 1500 1505 1508 1509 1517 1519 1520 1515 1506 1494 1481 1480 1479 1478 1478 1479 1483 1487 1491 1495 1499 1502 1504 1506 1507 1508 1509 1509 1509 1509 1509 1509 1509 1509 1509 1509 1509 1508 1508
1496 1500 1498 1499 1500 1501 1502 1504 1512 1516 1516 1514 1508 1504 1496 1482 1479 1478 1477 1477 1478 1482 1486 1490 1494 1497 1500 1502 1503 1505 1506 1506 1506 1506 1506 1506 1506 1506 1506 1506 1505 1505 1505 1504
1494 1498 1500 1499 1500 1500 1503 1505 1507 1511 1512 1513 1510 1499 1484 1480 1478 1477 1476 1476 1478 1481 1485 1489 1492 1495 1498 1499 1501 1502 1503 1503 1503 1503 1503 1503 1503 1503 1502 1502 1502 1501 1501 1500
1493 1498 1500 1499 1498 1497 1499 1500 1504 1508 1510 1513 1514 1498 1478 1478 1475 1474 1474 1476 1478 1481 1485 1488 1491 1493 1495 1497 1498 1500 1500 1501 1501 1500 1500 1500 1500 1499 1499 1499 1498 1498 1498 1497
1492 1497 1501 1500 1502 1500 1498 1498 1499 1502 1507 1513 1511 1494 1476 1476 1474 1473 1473 1475 1478 1481 1484 1487 1489 1491 1493 1495 1496 1497 1497 1498 1498 1497 1497 1497 1497 1496 1496 1496 1496 1495 1495 1495
1489 1495 1499 1497 1493 1494 1496 1495 1496 1499 1501 1502 1499 1488 1478 1474 1473 1473 1473 1474 1477 1479 1482 1484 1486 1488 1490 1492 1493 1494 1494 1495 1495 1495 1494 1494 1494 1494 1494 1494 1493 1493 1493 1493
1487 1493 1493 1492 1490 1490 1491 1490 1492 1493 1491 1493 1485 1483 1473 1472 1472 1471 1472 1473 1475 1477 1479 1481 1483 1485 1487 1488 1490 1490 1491 1492 1492 1492 1492 1492 1492 1491 1491 1492 1492 1491 1491 1491
1488 1490 1490 1490 1487 1488 1488 1486 1486 1486 1485 1483 1480 1474 1468 1468 1468 1468 1468 1469 1471 1473 1475 1477 1479 1481 1483 1484 1486 1487 1488 1489 1489 1489 1489 1489 1489 1489 1489 1490 1490 1490 1490 1490
1489 1490 1491 1492 1488 1485 1486 1476 1476 1477 1474 1474 1472 1464 1464 1465 1464 1463 1463 1464 1465 1467 1470 1472 1474 1476 1478 1480 1482 1483 1484 1485 1485 1486 1486 1486 1486 1487 1487 1488 1488 1489 1489 1489
1486 1489 1490 1491 1489 1490 1474 1466 1466 1468 1465 1465 1461 1458 1457 1457 1456 1457 1458 1459 1460 1463 1466 1468 1470 1472 1474 1476 1478 1479 1480 1481 1482 1482 1483 1483 1484 1484 1485 1486 1487 1487 1488 1488
1480 1484 1488 1490 1490 1483 1470 1463 1463 1465 1462 1457 1456 1454 1453 1453 1454 1453 1453 1454 1456 1458 1461 1464 1466 1468 1470 1472 1473 1475 1476 1477 1478 1479 1480 1480 1481 1482 1483 1484 1485 1486 1487 1487
1478 1480 1484 1485 1483 1480 1466 1459 1458 1462 1461 1452 1451 1451 1450 1452 1455 1450 1448 1450 1452 1455 1458 1460 1462 1464 1466 1468 1469 1471 1472 1474 1475 1476 1477 1478 1479 1480 1481 1483 1484 1485 1486 1486
1478 1480 1480 1480 1478 1472 1460 1457 1459 1465 1459 1451 1449 1448 1447 1448 1448 1447 1447 1448 1450 1452 1455 1457 1459 1461 1463 1464 1466 1467 1469 1470 1472 1473 1474 1475 1477 1478 1480 1481 1482 1483 1484 1485
1473 1475 1475 1475 1474 1469 1454 1456 1458 1455 1450 1449 1447 1446 1446 1446 1446 1446 1446 1447 1449 1450 1452 1454 1456 1458 1459 1461 1462 1464 1466 1468 1469 1470 1471 1473 1475 1476 1478 1479 1480 1482 1482 1483
1468 1466 1466 1465 1461 1453 1451 1451 1450 1449 1448 1447 1447 1446 1445 1445 1445 1446 1446 1447 1448 1449 1451 1452 1454 1455 1456 1458 1459 1461 1463 1464 1465 1467 1469 1470 1472 1474 1476 1477 1478 1479 1480 1481
1463 1461 1462 1460 1453 1449 1448 1447 1447 1447 1446 1446 1445 1445 1445 1445 1445 1445 1445 1446 1447 1448 1449 1450 1451 1452 1453 1455 1456 1458 1460 1461 1462 1464 1466 1468 1470 1471 1473 1474 1476 1477 1478 1479
1460 1459 1459 1456 1450 1447 1444 1444 1444 1443 1443 1443 1443 1443 1443 1443 1443 1444 1444 1444 1445 1445 1446 1447 1448 1449 1450 1452 1453 1454 1456 1457 1459 1461 1463 1465 1467 1468 1470 1471 1473 1474 1475 1476
1454 1454 1455 1450 1446 1446 1443 1442 1441 1441 1440 1441 1440 1440 1441 1441 1441 1441 1442 1442 1442 1443 1443 1444 1445 1446 1447 1448 1449 1451 1452 1454 1456 1457 1459 1461 1463 1465 1467 1468 1470 1471 1472 1473